Flag for U.S.A. Weather past 2 weeks in Vista, California, U.S.A.

Now
63 °F

Overcast.


Feels Like: 63 °F
Forecast: 54 / 63 °F
Wind: 5 mph from Northeast

Location: McClellan-Palomar Airport

Current Time: Jan 29, 2015 at 6:44:09 PM

Latest Report: Jan 29, 2015 at 5:53 PM


Visibility: 10 mi

Pressure: 29.99 "Hg

Humidity: 68%

Dew point: 52 °F

Location of VistaLocation

Historic Weather in Vista — Graph

°F

Vista temperature yesterday

Maximum temperature yesterday: 74 °F (at 10:53 AM)
Minimum temperature yesterday: 52 °F (at 6:53 AM)
Average temperature yesterday: 61 °F

Past Weeks' High & Low Weather Summary

 TemperatureHumidityPressure
High81 °F (Jan 24, 12:53 PM)97% (Jan 19, 11:04 PM)30.24 "Hg (Jan 19, 11:04 PM)
Low46 °F (Jan 22, 6:53 AM)9% (Jan 23, 11:53 AM)29.92 "Hg (Jan 20, 4:53 PM)
Average60 °F52%30.09 "Hg
* Reported Jan 14 4:53 PM — Jan 29 4:53 PM, Vista, Weather by CustomWeather, © 2014

Note: Actual official high and low records may vary slightly from our data, if they occured in-between our weather recording intervals... More about our weather records

Advertising

Vista weather history for previous 24 hours

 ConditionsComfort  
Time TempWeatherWind HumidityBarometerVisibility
4:53 PM
Jan 29
63 °FOvercast.No wind68%29.98 "Hg10 mi
3:53 PM65 °FOvercast.6 mph59%29.99 "Hg10 mi
2:53 PM66 °FOvercast.7 mph47%29.99 "Hg10 mi
1:53 PM67 °FPartly sunny.7 mph51%29.98 "Hg10 mi
12:53 PM72 °FPassing clouds.No wind35%29.99 "Hg10 mi
11:53 AM69 °FOvercast.No wind42%30.02 "Hg10 mi
10:53 AM67 °FOvercast.No wind47%30.05 "Hg10 mi
9:53 AM66 °FOvercast.3 mph43%30.05 "Hg10 mi
8:53 AM65 °FSunny.No wind42%30.03 "Hg10 mi
7:53 AM63 °FSunny.5 mph45%30.02 "Hg10 mi
6:53 AM59 °FSunny.No wind58%30.01 "Hg10 mi
5:53 AM60 °FClear.No wind53%30.00 "Hg10 mi
4:53 AM61 °FClear.3 mph52%29.98 "Hg10 mi
3:53 AM60 °FClear.No wind56%29.99 "Hg10 mi
2:53 AM61 °FClear.3 mph54%30.01 "Hg10 mi
1:53 AM63 °FClear.5 mph52%30.02 "Hg10 mi
12:53 AM63 °FClear.5 mph54%30.03 "Hg10 mi
11:53 PM
Jan 28
60 °FClear.3 mph72%30.04 "Hg10 mi
10:53 PM61 °FClear.3 mph72%30.07 "Hg10 mi
9:53 PM61 °FClear.No wind72%30.06 "Hg10 mi
8:53 PM62 °FClear.No wind70%30.06 "Hg10 mi
7:53 PM62 °FClear.No wind70%30.06 "Hg10 mi
6:53 PM63 °FClear.No wind68%30.06 "Hg10 mi
Weather by CustomWeather, © 2014

See weather overviewHow to use our weather pages